Back to catalog

COSMOS 970 DEB

AliveLEO
NORAD 64977·DEBRIS·🇷🇺 Russia

Launched Dec 21, 1977 from Baikonur Cosmodrome

Loading…

Next Passes (next 24 hours)

TLE

FreshSource: Space-Track

Epoch: Sep 13, 2026, 20:31 UTC

1 64977U 77121CN  26256.85533780  .00000088  00000-0  17814-3 0  9991
2 64977  65.7674  91.8351 0120410 351.9514  23.0697 13.71350280640718

Track COSMOS 970 DEB in real time with AllMySat

Download on the App Store